Location: Home
(42.5358°N, 72.7383°W)
Time: 10:23:50
(UTC-05:00)

S-56A Canister/Altair - Pass Details

Date: 30 November 2021
Orbit: 634 x 2499 km, 38.9° (Epoch: 22 January)

Event Time Altitude Azimuth Distance (km) Brightness Sun altitude
Rises 04:19:32 0° 271° (W) 3,630 - -29.0°
Reaches altitude 10° 04:22:31 10° 267° (W) 2,459 - -28.4°
Maximum altitude 04:27:47 50° 193° (SSW) 883 - -27.5°
Exits shadow 04:28:28 46° 164° (SSE) 914 7.9 -27.3°
Drops below altitude 10° 04:32:07 10° 117° (ESE) 2,020 10.6 -26.7°
Sets 04:34:21 0° 112° (ESE) 2,914 11.7 -26.3°
